Location: Lake Lucerne
(45.5315°N, 88.8489°W)
Time: 23:24:44
(UTC-05:00)

ISS - Visible Passes

Search period start: 12 May 2021 00:00
Search period end: 22 May 2021 00:00
Orbit: 417 x 422 km, 51.6° (Epoch: 12 May)

Date Brightness Start Highest point End Pass type
(mag) Time Alt. Az. Time Alt. Az. Time Alt. Az.
12 May -0.7 00:29:58 11° NE 00:29:58 11° NE 00:30:08 10° ENE visible
12 May -1.7 02:02:54 22° NW 02:04:07 28° N 02:07:05 10° ENE visible
12 May -2.4 03:38:14 10° NW 03:41:28 41° NNE 03:44:43 10° E visible
13 May -1.8 01:16:41 29° N 01:16:41 29° N 01:19:33 10° NE visible
13 May -2.0 02:50:48 10° NW 02:53:56 34° NNE 02:57:03 10° E visible
13 May -3.8 04:27:35 10° WNW 04:30:57 70° SSW 04:34:18 10° SE visible
13 May-0.122:57:18ENE22:57:18ENE22:46:51SWvisible
14 May -1.6 00:30:10 25° NNE 00:30:10 25° NNE 00:32:03 10° NE visible
14 May -1.8 02:03:19 10° NW 02:06:21 30° N 02:09:23 10° ENE visible
14 May -3.7 03:40:08 10° WNW 03:43:31 78° NNE 03:46:54 10° ESE visible
14 May -3.6 22:01:18 10° SW 22:04:32 46° SE 22:07:47 10° ENE visible
14 May -2.4 23:38:11 10° W 23:41:24 40° NNW 23:44:37 10° NE visible
15 May -1.6 01:15:48 10° WNW 01:18:46 28° N 01:21:44 10° ENE visible
15 May -3.0 02:52:43 10° WNW 02:56:03 55° NNE 02:59:22 10° ESE visible
15 May -2.8 04:29:46 10° W 04:32:42 28° SW 04:35:38 10° SSE visible
15 May -2.9 21:14:14 10° SSW 21:17:11 29° SE 21:20:10 10° ENE visible
15 May -3.0 22:50:34 10° W 22:53:53 52° NNW 22:57:12 10° NE visible
16 May -1.6 00:28:12 10° WNW 00:31:10 28° N 00:34:08 10° ENE visible
16 May -2.5 02:05:18 10° NW 02:08:31 41° NNE 02:11:46 10° E visible
16 May -3.5 03:42:09 10° WNW 03:45:22 44° SW 03:48:36 10° SE visible
16 May -3.6 22:03:02 10° WSW 22:06:24 74° NNW 22:09:47 10° ENE visible
16 May -1.7 23:40:34 10° WNW 23:43:34 29° N 23:46:35 10° NE visible
17 May -2.0 01:17:51 10° NW 01:20:59 34° NNE 01:21:41 30° NE visible
17 May -1.8 03:00:14 19° SE 03:00:14 19° SE 03:01:20 10° SE visible
17 May -1.7 04:33:46 11° WSW 04:34:15 11° SW 04:35:11 10° SSW visible
17 May -3.8 21:15:36 10° SW 21:18:57 74° SSE 21:22:20 10° ENE visible
17 May -1.9 22:52:54 10° W 22:56:00 33° NNW 22:59:06 10° NE visible
18 May -1.8 00:30:22 10° NW 00:33:24 30° N 00:34:32 24° NE visible
18 May -1.0 02:07:10 10° WNW 02:07:25 12° WNW 02:07:25 12° WNW visible
18 May -2.3 22:05:14 10° W 22:08:26 40° NNW 22:11:39 10° NE visible
18 May -1.7 23:42:50 10° WNW 23:45:48 28° N 23:48:12 13° ENE visible
19 May -1.6 01:19:45 10° WNW 01:21:08 22° NW 01:21:08 22° NW visible
19 May -2.8 21:17:37 10° W 21:20:55 52° NNW 21:24:13 10° NE visible
19 May -1.6 22:55:15 10° WNW 22:58:12 28° N 23:01:10 10° ENE visible
20 May -2.3 00:32:20 10° NW 00:35:00 37° N 00:35:00 37° N visible
20 May -1.7 22:07:36 10° WNW 22:10:36 29° N 22:13:37 10° NE visible
20 May -2.1 23:44:53 10° NW 23:48:00 34° NNE 23:48:57 28° NE visible
21 May -0.9 01:21:39 10° WNW 01:21:52 11° WNW 01:21:52 11° WNW visible
21 May -1.9 21:19:56 10° WNW 21:23:01 33° NNW 21:26:07 10° NE visible
21 May -1.9 22:57:24 10° NW 23:00:25 30° N 23:02:55 13° ENE visible
